Location: Dana
(41.8364°N, 106.7042°W)
Time: 14:29:33
(UTC+00:00)

Injun/Solrad 3 - Pass Details

Date: 10 May 2026
Orbit: 867 x 989 km, 66.8° (Epoch: 7 June)

Event Time Altitude Azimuth Distance (km) Brightness Sun altitude
Rises 08:07:08 0° 333° (NNW) 3,675 11.6 -28.7°
Reaches altitude 10° 08:09:47 10° 338° (NNW) 2,736 10.9 -28.5°
Maximum altitude 08:16:02 52° 54° (NE) 1,212 8.7 -28.2°
Enters shadow 08:20:11 22° 122° (ESE) 2,030 9.5 -27.9°
Drops below altitude 10° 08:22:18 10° 130° (SE) 2,740 - -27.8°
Sets 08:24:57 0° 135° (SE) 3,681 - -27.6°
